Vertical_Velocity
1 1 -1 -1 -0 2 0 -1 -1 -1 -1 -1 -1 0 0 1 0 -1 -3 -1 -1 0 -1 -1 -1 -2 -0 1 -0 -1 -0 -3 -22 2 -9 -9 -11 -14 -5 -5 0 2 3
0 -0 -1 0 1 -1 -1 -1 -1 -2 0 1 2 2 1 1 -2 -0 -0 -1 -2 -0 -1 -0 -2 -3 -0 0 -1 3 -3 2 -9 -30 -8 5 3 1 -6 -2 -0 -1 -2
0 0 0 1 -1 -1 -0 -0 -1 -0 0 1 2 1 2 -2 -1 -5 -3 -2 -2 -2 -4 -4 -2 -2 1 -1 -1 -4 -3 1 3 -5 -10 -1 -2 -3 2 1 0 1 1
0 -0 0 -1 -0 -0 0 -1 0 1 -0 1 1 -0 -2 -2 -3 0 -1 1 -1 -3 -2 -3 -1 -2 -3 -7 -6 0 -1 -3 1 -1 -5 -7 -6 4 -3 -7 6 3 3
-1 -0 0 -1 0 -0 -0 1 1 -1 1 1 -1 -4 -3 -1 -2 0 0 1 -1 0 1 2 -1 -3 -6 -6 -10 -7 -3 -2 -1 -7 -5 -1 -1 -0 -6 3 -3 -1 13
0 0 -0 -0 0 1 0 -0 0 1 -1 -2 -2 1 1 -0 -1 -0 -4 1 -1 -1 -0 2 -1 -3 -0 -0 -2 -2 -2 -9 -1 -8 -4 -7 0 -5 1 -2 -2 -0 17
1 0 -0 1 1 -0 -0 2 -0 -1 -2 -0 -2 -2 -1 -3 -2 -2 -2 1 0 -1 -4 -5 -2 -5 -8 -4 0 2 4 5 -3 -7 -5 -2 -0 -5 -4 4 -1 1 0
-0 -0 1 -0 -0 1 -1 -0 0 1 1 -1 -2 -3 1 -3 -0 -3 1 1 0 -2 -4 -5 -7 -3 -3 -5 -5 -2 -3 -3 -2 -0 -2 1 -2 -0 -2 -2 -0 4 2
1 0 -0 1 -1 -2 2 2 2 -1 -3 -0 -3 1 -0 -1 -1 -0 2 -1 -0 2 -1 -2 -7 -2 2 -2 -8 -4 1 -2 -3 -2 -5 -5 -3 -3 -5 2 2 2 2
0 0 -2 -1 2 2 0 -1 -0 0 -0 2 2 -2 -5 -0 0 -1 -1 -0 -2 -5 -10 -3 -2 -3 -3 -1 -4 -3 0 -1 2 2 -1 -4 -4 -3 -2 -4 -2 1 2
-1 0 2 2 2 1 -1 -1 1 -0 0 -1 -1 -2 -1 -4 -1 -2 -2 -4 -8 -3 -4 -1 -1 1 -0 -1 -2 -3 -4 -0 -1 -2 -2 -1 -1 -1 -0 -0 -1 -2 2
1 2 2 1 -1 -1 0 -1 0 1 1 1 2 5 -0 -3 -7 -2 0 -3 -5 -7 -2 -2 -0 -2 -2 -3 -0 -1 -1 -2 -2 -0 -0 0 -0 0 -0 -1 1 -1 -6
0 -0 -0 -1 0 1 1 1 -2 -3 -1 1 2 3 4 1 1 -1 -3 -5 -5 -1 1 -1 -2 -4 -1 -2 -2 -1 0 1 0 -2 -2 -1 -0 1 1 -0 -2 -2 -2
-1 -1 -0 0 1 2 1 0 1 1 2 2 -1 1 2 3 1 -1 2 3 1 3 2 2 -3 -3 -2 1 0 -2 -1 -1 0 2 1 -0 1 -1 -0 1 0 2 1
-0 0 1 1 0 -2 -1 1 2 -1 -2 0 1 -0 -3 1 -0 -3 -6 -6 -4 -1 -2 -0 -1 -1 -0 -2 -3 0 -1 -2 -1 -2 0 -0 -1 -1 -1 0 1 -1 -0
1 1 0 -0 0 1 1 -1 -6 1 -0 -2 -6 -9 -2 -9 -9 -6 -3 -1 -1 -1 1 0 -0 -0 0 -0 -1 -2 -1 -0 -1 -2 -3 -1 0 0 -0 -1 1 1 -1
-0 -0 -0 -1 -0 1 0 1 13 3 -12 -10 -6 -2 -2 -5 -6 -2 -0 -0 -5 1 -2 -0 -1 -1 -2 -1 0 1 1 -0 -1 -0 -0 -0 -0 -1 1 1 0 1 -2
-0 -1 -1 1 1 -0 1 1 -1 -4 4 15 6 -0 2 -5 -4 -3 0 -0 -1 -7 -1 0 -1 -0 0 0 -0 1 0 -1 -2 -1 -2 -1 -0 1 -0 1 1 -0 -1
-1 -0 1 1 1 1 1 -1 -2 -1 -2 -2 1 2 -3 -2 -2 -4 -3 -1 0 -1 1 -1 0 1 -1 -1 1 0 1 -0 1 0 -1 -0 -1 -1 -1 0 1 1 -0
2 2 1 0 -1 -2 -4 -2 -0 -2 -2 -2 -3 -4 -1 1 3 3 -1 0 -0 -1 0 1 0 -0 0 0 1 0 -1 -1 -2 -1 -1 -1 -1 -0 0 0 0 -1 0
0 -0 1 -1 -2 -2 -1 -0 -0 -1 -1 -2 -3 -5 -4 -3 1 -1 0 1 1 -0 -1 0 -0 -1 -0 -0 -0 -1 -0 -0 -0 0 0 0 0 0 0 0 -1 -0 1
-0 -0 -1 -1 -2 -2 -0 -2 -1 -1 -4 -4 0 -3 -3 -1 0 -1 1 0 1 0 0 -1 1 2 2 0 -1 -0 0 -0 -1 -0 2 2 0 -1 -0 -1 1 -0 -1
-1 -1 -3 -3 -1 -1 -1 -3 -3 -3 -4 -2 -3 0 -0 -1 -1 0 0 1 -1 -2 -0 0 -0 0 -1 -0 0 -0 -1 0 2 2 0 -1 -3 -1 2 1 -0 -0 -1
-1 -1 0 0 -1 1 -1 -1 -1 -3 -3 -1 -1 -0 -1 -1 -1 -0 -0 -0 0 0 0 0 0 0 -1 -1 -1 -1 1 2 -1 0 4 5 3 -0 -2 -1 -1 -1 -1
-2 -1 -2 -2 -1 -0 1 0 -1 -2 -3 -1 1 -1 -2 -1 -1 -1 0 -0 -1 -1 -1 -1 -2 -1 -1 -1 -0 0 1 1 -2 -0 -1 -1 -1 1 -1 -1 -1 -1 -0
-1 -1 -2 -2 -2 -2 -1 0 -2 -3 -0 -0 -1 -1 -1 -2 -2 -0 -0 -1 1 0 1 0 0 0 -0 -0 0 -0 3 -1 1 -1 0 -0 -1 2 0 0 1 1 0
Height
5698 5698 5698 5696 5695 5694 5691 5689 5686 5683 5679 5675 5671 5666 5660 5654 5646 5639 5631 5623 5613 5604 5594 5586 5577 5568 5558 5545 5532 5518 5503 5483 5467 5478 5455 5437 5419 5396 5382 5367 5355 5345 5335
5691 5691 5690 5688 5687 5686 5683 5680 5677 5674 5669 5665 5660 5654 5648 5641 5633 5626 5617 5608 5598 5588 5579 5570 5560 5549 5538 5524 5510 5494 5475 5457 5430 5415 5421 5396 5375 5362 5348 5341 5331 5321 5313
5684 5684 5682 5681 5680 5677 5675 5672 5668 5664 5659 5654 5649 5642 5635 5628 5620 5611 5602 5592 5582 5572 5562 5552 5540 5528 5516 5501 5485 5468 5448 5427 5403 5377 5364 5357 5342 5329 5319 5311 5303 5296 5292
5677 5676 5675 5674 5671 5669 5667 5663 5658 5654 5648 5643 5636 5630 5623 5615 5606 5597 5587 5576 5566 5556 5544 5532 5520 5505 5490 5474 5457 5438 5417 5395 5372 5352 5337 5324 5313 5303 5288 5278 5280 5275 5272
5669 5669 5668 5666 5664 5661 5658 5653 5648 5643 5637 5631 5625 5618 5610 5602 5592 5582 5572 5562 5551 5540 5527 5512 5497 5481 5464 5445 5424 5405 5382 5362 5346 5328 5317 5303 5289 5278 5269 5264 5259 5257 5256
5663 5662 5661 5658 5656 5652 5648 5643 5637 5632 5626 5620 5613 5606 5597 5587 5577 5567 5557 5547 5534 5521 5509 5494 5477 5458 5440 5421 5398 5376 5357 5337 5321 5306 5296 5283 5274 5264 5259 5254 5250 5247 5249
5656 5655 5653 5651 5647 5643 5638 5633 5627 5622 5615 5608 5601 5592 5583 5573 5563 5553 5542 5530 5516 5501 5486 5471 5455 5433 5412 5393 5374 5358 5341 5324 5307 5295 5287 5277 5268 5260 5255 5251 5245 5240 5236
5650 5648 5645 5642 5638 5633 5628 5623 5617 5611 5604 5596 5587 5578 5568 5558 5549 5538 5527 5513 5499 5482 5463 5444 5426 5409 5387 5366 5352 5339 5322 5308 5299 5289 5280 5274 5266 5258 5251 5246 5240 5236 5231
5643 5640 5637 5633 5629 5624 5619 5613 5607 5600 5592 5583 5573 5564 5555 5544 5534 5523 5510 5497 5481 5464 5443 5421 5401 5384 5366 5350 5337 5324 5312 5302 5292 5284 5276 5269 5262 5255 5248 5243 5238 5233 5229
5635 5632 5628 5624 5619 5614 5609 5603 5595 5588 5579 5570 5560 5551 5540 5530 5518 5505 5492 5477 5463 5447 5427 5404 5381 5362 5347 5335 5325 5315 5306 5298 5290 5283 5275 5267 5260 5253 5246 5240 5235 5231 5226
5627 5623 5619 5614 5610 5604 5598 5591 5583 5575 5566 5558 5548 5537 5526 5513 5500 5486 5471 5456 5440 5423 5403 5383 5365 5350 5338 5327 5317 5309 5301 5294 5286 5279 5272 5266 5259 5252 5246 5239 5233 5228 5224
5618 5614 5610 5605 5599 5593 5586 5579 5571 5563 5555 5546 5536 5524 5510 5496 5481 5468 5451 5433 5415 5397 5380 5364 5350 5338 5327 5318 5311 5304 5297 5289 5283 5277 5271 5264 5258 5251 5245 5239 5233 5226 5217
5608 5604 5599 5594 5589 5582 5574 5567 5559 5551 5542 5533 5523 5511 5497 5482 5465 5449 5432 5413 5394 5376 5362 5348 5336 5327 5318 5311 5305 5300 5293 5287 5280 5274 5268 5262 5256 5251 5245 5239 5233 5226 5217
5599 5594 5589 5584 5577 5570 5564 5556 5548 5540 5530 5519 5508 5496 5482 5466 5449 5432 5414 5394 5376 5362 5349 5337 5327 5319 5311 5306 5301 5294 5288 5283 5278 5272 5266 5260 5254 5249 5244 5239 5234 5228 5220
5589 5584 5578 5573 5566 5559 5552 5544 5536 5525 5515 5505 5492 5478 5464 5449 5431 5411 5392 5375 5360 5348 5337 5328 5320 5313 5308 5301 5294 5290 5285 5279 5273 5267 5262 5257 5252 5247 5242 5237 5232 5227 5220
5579 5574 5569 5562 5555 5548 5540 5531 5521 5512 5500 5486 5473 5459 5444 5426 5408 5391 5374 5360 5347 5337 5329 5321 5315 5309 5303 5298 5292 5286 5281 5275 5269 5264 5258 5253 5249 5244 5240 5236 5231 5227 5221
5570 5564 5558 5551 5544 5537 5529 5521 5512 5496 5482 5470 5456 5441 5423 5405 5388 5374 5362 5349 5337 5329 5322 5316 5311 5305 5300 5294 5289 5283 5277 5271 5266 5261 5255 5250 5245 5240 5237 5234 5230 5226 5221
5560 5553 5547 5540 5533 5526 5518 5508 5497 5486 5474 5458 5440 5424 5406 5387 5372 5361 5351 5340 5330 5322 5316 5312 5306 5301 5295 5290 5285 5280 5273 5267 5262 5257 5252 5247 5242 5238 5234 5231 5228 5224 5221
5550 5543 5537 5530 5523 5515 5506 5495 5483 5469 5455 5440 5425 5406 5388 5372 5360 5350 5341 5333 5325 5319 5314 5308 5303 5297 5292 5287 5282 5276 5270 5264 5258 5253 5249 5244 5240 5235 5231 5228 5226 5223 5220
5540 5534 5527 5520 5512 5503 5492 5481 5468 5453 5438 5422 5405 5390 5376 5364 5352 5342 5333 5328 5321 5316 5311 5306 5300 5295 5290 5284 5279 5273 5267 5261 5256 5250 5246 5241 5237 5233 5230 5227 5224 5221 5219
5530 5524 5517 5509 5500 5489 5478 5465 5451 5437 5422 5405 5389 5373 5363 5352 5343 5335 5329 5324 5319 5314 5308 5304 5299 5294 5288 5283 5278 5273 5267 5261 5255 5250 5246 5241 5237 5233 5230 5226 5223 5220 5219
5521 5514 5506 5497 5486 5474 5462 5449 5435 5421 5405 5390 5375 5363 5351 5341 5335 5330 5326 5322 5317 5313 5308 5303 5299 5294 5289 5284 5280 5275 5268 5262 5256 5252 5248 5243 5238 5234 5230 5226 5223 5219 5217
5511 5503 5493 5483 5472 5460 5446 5432 5419 5403 5389 5375 5365 5355 5344 5337 5331 5328 5325 5321 5317 5312 5308 5303 5299 5294 5290 5286 5282 5277 5271 5265 5260 5255 5251 5245 5240 5235 5231 5226 5222 5218 5215
5500 5490 5480 5469 5457 5445 5431 5417 5402 5387 5375 5365 5355 5347 5339 5334 5331 5328 5325 5322 5318 5313 5308 5303 5299 5295 5292 5288 5284 5280 5275 5269 5264 5259 5254 5249 5243 5237 5232 5226 5221 5217 5214
5487 5477 5466 5454 5443 5430 5415 5400 5385 5373 5364 5355 5347 5341 5336 5333 5331 5329 5326 5323 5320 5315 5310 5305 5301 5297 5293 5290 5286 5282 5277 5272 5266 5261 5256 5251 5246 5241 5235 5229 5223 5218 5215
5474 5463 5452 5440 5427 5412 5398 5382 5371 5362 5353 5346 5340 5336 5333 5333 5332 5330 5329 5326 5323 5318 5313 5309 5305 5301 5297 5293 5289 5285 5280 5275 5270 5265 5260 5255 5250 5245 5239 5234 5227 5221 5218